Zurück zum Katalog

STARLINK-3451

AktivKommunikationVLEO
NORAD 51749·PAYLOAD·🇺🇸 United States

Gestartet Feb 21, 2022 von Cape Canaveral Space Force Station

Loading…

Nächste Überflüge (nächste 24 Stunden)

TLE

AktuellSource: CelesTrak SupGP

Epoche: Sep 15, 2026, 02:09 UTC

1 51749C 22016AM  26258.09006944 -.00019002  00000+0 -61114-3 0  2589
2 51749  53.1568 175.9921 0001392  90.7336  29.6405 15.31707356    18

Verfolge STARLINK-3451 in Echtzeit mit AllMySat

Download on the App Store